CAPE
0 0 0 0 0 0 0 0 0 0 0 0 0 0 0 0 0 0 0 0 0 0 0 0 0 0 3 0 0 0 0 0 0 0 0 0 0 0 0 0 0 2 44
0 0 0 0 0 0 0 0 0 0 0 0 0 0 0 0 0 0 0 0 0 0 0 0 1 1 0 0 3 0 0 0 0 2 0 0 0 0 0 0 0 0 1
0 0 0 0 0 0 0 0 0 0 0 0 0 0 0 0 0 0 0 0 0 0 0 0 0 1 1 7 2 4 4 2 0 0 0 0 0 0 0 0 0 0 0
4 1 0 0 0 0 0 0 0 0 0 0 0 0 0 0 0 0 0 0 0 0 0 1 0 4 0 0 2 2 2 2 0 1 2 3 0 0 0 0 0 0 0
2 0 0 0 0 0 0 0 0 0 0 0 0 0 0 0 0 0 0 0 0 0 0 1 1 0 2 0 0 0 0 1 4 4 1 0 1 0 4 3 3 0 0
0 0 0 0 0 0 0 0 0 0 0 0 0 0 0 1 0 0 0 0 0 0 0 0 0 1 2 0 0 0 0 2 4 7 8 7 5 1 2 6 0 0 0
0 0 0 0 0 0 0 0 0 0 0 0 0 0 0 0 0 0 0 0 0 0 1 2 0 2 1 2 0 1 0 0 1 3 3 1 5 11 13 10 4 4 5
0 0 0 0 0 0 0 0 0 0 0 0 0 0 0 0 0 0 0 0 0 0 1 1 1 1 2 0 0 0 0 0 0 0 0 0 2 5 13 4 0 4 0
0 0 0 0 0 0 0 0 0 0 0 0 0 0 0 0 0 0 0 0 0 1 0 0 1 0 0 0 0 1 1 1 0 0 0 0 0 0 0 0 2 4 3
0 0 0 0 0 0 0 0 0 0 0 0 0 0 0 1 0 0 0 0 0 0 0 0 0 0 0 0 0 1 0 0 0 0 1 0 0 0 0 3 3 4 8
0 0 0 0 0 0 0 0 0 0 0 0 0 0 0 0 0 0 0 0 0 0 0 0 0 0 0 0 0 0 0 0 0 1 2 1 1 0 0 0 3 6 1
0 0 0 0 0 0 0 0 0 0 0 0 0 1 0 0 0 0 0 0 0 0 0 0 1 0 0 0 0 0 0 0 0 1 2 1 1 0 1 1 1 1 6
0 0 0 0 0 0 0 0 0 0 0 0 0 0 0 0 0 0 0 0 0 0 0 0 0 0 0 0 0 0 2 3 2 0 1 1 1 0 2 2 0 0 1
0 0 0 0 0 0 0 0 0 0 0 0 0 0 0 0 0 0 0 0 0 0 0 0 0 0 0 1 0 1 2 3 2 4 3 2 1 1 1 3 1 0 0
0 0 0 0 0 0 0 0 0 0 0 0 0 0 0 0 0 0 0 0 0 0 0 0 0 0 1 1 2 1 1 2 2 3 2 3 3 1 1 1 1 0 1
0 0 0 0 0 0 0 0 0 0 0 0 0 0 0 0 0 0 0 0 0 0 0 2 1 3 4 4 3 2 1 1 1 2 3 2 2 1 1 1 1 1 1
1 0 0 0 0 0 0 0 0 0 0 0 0 0 0 0 0 0 0 0 0 0 0 2 3 4 4 3 2 1 2 1 2 2 3 2 2 2 1 1 1 1 1
0 0 0 0 0 0 0 0 1 1 1 0 1 0 0 0 0 0 0 0 0 0 0 1 3 3 2 2 1 2 2 1 1 2 3 3 3 3 1 2 1 1 1
0 0 0 0 1 0 0 0 0 0 0 0 0 0 0 0 0 0 0 0 1 1 1 2 2 1 1 3 2 1 1 2 1 3 6 7 6 3 3 1 1 0 1
0 0 0 0 0 0 0 0 0 0 0 0 1 1 0 0 0 0 0 0 0 0 0 1 1 2 3 2 2 1 2 4 3 5 9 10 9 4 2 1 2 1 1
0 0 0 0 0 0 0 0 0 1 0 0 1 0 0 0 0 0 0 0 0 1 1 1 0 0 1 1 1 1 3 5 3 5 9 11 10 5 3 2 2 0 1
0 0 0 0 0 0 0 0 0 0 1 2 1 1 0 0 0 0 0 0 0 1 0 0 0 0 1 1 3 1 6 7 6 7 8 10 9 9 1 14 1 0 0
0 0 0 0 0 0 0 0 0 0 0 0 0 0 0 0 0 0 0 0 0 0 2 0 0 0 0 0 1 1 3 4 4 3 6 8 8 5 0 0 0 0 0
0 0 0 0 0 0 0 0 0 0 0 0 0 0 0 0 0 0 0 0 0 1 0 4 0 0 0 0 0 2 2 2 3 3 4 4 3 0 1 0 1 0 0
0 0 0 0 0 0 0 0 0 0 0 0 0 1 0 0 0 0 0 0 1 0 0 0 1 0 0 0 0 2 2 3 4 4 5 6 5 2 1 1 1 1 1
0 0 0 0 0 0 0 0 0 1 0 1 1 0 0 0 1 0 0 0 0 0 0 0 0 0 0 0 0 1 2 2 3 1 3 4 7 6 0 1 1 0 1
CIN
0 0 0 0 0 0 0 0 0 0 0 0 0 0 0 0 0 0 0 0 0 0 0 0 0 0 -1 -5 -4 0 0 0 0 0 0 0 0 0 0 0 0 -12 -18
0 0 0 0 0 0 0 0 0 0 0 0 0 0 0 0 0 0 0 0 0 0 0 0 -1 -6 -1 -2 -4 0 0 0 0 0 0 0 0 0 0 0 0 0 -9
0 0 0 0 0 0 0 0 0 0 0 0 0 0 0 0 0 0 0 0 0 0 0 0 -4 -2 -2 -2 -6 -4 -1 -2 -1 -1 -1 -2 0 0 0 0 0 0 0
-7 -3 0 0 0 0 0 0 0 0 0 0 0 0 0 0 0 0 0 0 0 0 0 -3 -1 -2 -2 0 -5 -6 -6 -6 -3 -1 0 0 0 0 0 0 0 0 0
-25 0 0 0 0 0 0 0 0 0 0 0 0 0 0 0 0 0 0 0 0 0 0 -1 -2 0 -3 -1 0 0 0 -2 -2 -1 0 0 0 0 -1 -17 -17 -1 0
0 0 0 0 0 0 0 0 0 0 0 0 0 0 -1 -13 0 0 0 0 0 0 0 -1 0 -1 -3 0 0 -3 0 -5 -2 -1 0 0 0 -3 -1 0 0 0 0
0 0 0 0 0 0 0 0 0 0 0 0 0 0 -3 0 0 0 0 0 0 -1 -3 -2 -2 -1 -1 -1 -1 -2 0 0 -1 -2 0 0 0 0 -1 0 -1 -1 0
0 0 0 0 0 0 0 0 0 0 0 0 0 -3 0 0 0 0 0 0 0 -2 -1 -1 -2 -1 0 0 0 0 0 0 0 0 -1 -1 -1 -4 -1 -1 0 0 -1
0 0 0 0 0 0 0 0 0 0 0 -1 0 0 0 0 0 0 0 0 0 -1 0 -1 -2 0 0 0 0 0 0 0 0 0 -1 0 0 0 0 0 0 0 -1
0 0 0 0 0 0 0 0 0 0 -1 0 0 0 0 -1 0 0 0 0 0 -1 0 0 0 0 0 0 0 0 0 0 0 0 0 0 0 0 -1 -2 0 0 0
0 0 0 0 0 0 0 0 -1 0 0 0 0 -1 0 -1 -1 0 0 0 -1 0 0 0 -1 0 0 0 0 0 0 0 0 0 0 0 0 0 0 -5 -1 0 0
0 0 0 0 0 0 0 0 0 -2 0 -1 -1 -1 -1 -1 0 0 0 0 0 0 0 -1 0 0 0 0 0 -1 0 0 0 0 0 0 0 0 -1 -1 -3 -3 -4
0 0 0 0 0 0 0 0 0 0 0 0 0 0 0 0 0 0 0 0 0 0 0 0 0 0 0 0 0 0 0 0 0 0 0 0 0 0 -1 -1 0 0 -9
0 0 0 0 0 0 0 0 0 0 0 0 0 0 0 0 0 0 0 0 0 0 0 0 0 0 0 0 0 0 0 0 0 0 0 0 0 0 0 0 -1 0 0
0 0 0 0 0 -1 0 0 0 0 0 0 0 0 0 0 0 0 0 0 0 0 0 0 0 0 0 0 0 0 0 0 0 0 0 0 0 0 0 0 0 -1 0
0 0 -1 0 0 0 0 -1 0 0 0 0 0 0 0 0 0 0 0 0 0 0 0 0 0 0 0 0 0 0 0 0 0 0 0 0 0 0 0 0 0 0 0
-1 0 0 0 0 -2 -1 0 0 0 0 0 0 0 0 0 0 0 0 0 0 0 0 0 0 0 0 0 0 0 0 0 0 0 0 0 0 0 0 0 0 0 0
0 -1 -1 -1 -1 0 0 0 -1 0 0 -1 -1 -1 0 0 0 0 0 0 0 0 0 0 0 0 0 0 0 0 0 0 0 0 0 0 0 0 0 0 0 0 0
-1 0 -1 -1 -2 -2 0 -1 0 -1 -1 -1 -1 -2 0 0 0 0 0 0 0 0 0 0 0 0 0 0 0 0 0 0 0 0 0 0 0 0 0 0 0 0 0
0 0 0 0 0 0 -2 -3 0 0 0 0 -1 -1 0 0 0 0 0 0 0 0 0 0 0 0 0 0 0 0 0 0 0 0 0 0 0 0 0 0 0 0 0
-1 0 0 0 0 0 0 0 -1 -1 -1 -1 -2 -2 0 0 0 -1 0 0 0 0 0 0 0 0 0 0 0 0 0 0 0 0 0 0 0 0 0 -1 -1 0 0
0 0 0 0 0 0 0 0 0 0 -2 -1 -1 -1 0 0 0 0 0 0 0 -1 0 0 0 0 0 0 0 0 0 0 0 0 0 0 0 0 0 -1 0 0 0
0 0 0 0 0 0 0 0 0 0 0 0 -2 -2 0 0 0 0 0 0 0 -1 -1 0 0 0 0 -1 -1 0 0 0 0 0 0 0 0 0 0 -1 0 0 0
0 0 0 0 0 0 0 0 0 0 0 0 0 -1 0 0 0 0 0 0 -1 -2 0 0 0 0 0 0 0 0 0 0 0 0 0 0 0 0 0 0 0 0 0
0 0 0 0 0 0 0 0 0 0 0 -1 -1 -1 -1 0 0 0 0 0 0 0 0 0 0 0 0 0 0 0 0 0 0 0 0 0 0 0 0 0 0 0 0
0 0 0 0 0 0 0 0 0 -2 -2 -1 -2 -1 -2 0 0 0 0 0 0 0 0 0 0 0 0 0 0 0 0 0 0 0 0 0 0 0 0 0 0 0 0
Wind_Speed
4 6 7 7 8 10 13 16 19 22 26 29 32 34 36 37 38 38 37 36 37 40 38 38 39 38 35 35 35 34 35 35 38 39 40 41 44 43 41 37 36 35 32
4 5 6 7 10 13 16 19 22 25 28 31 34 36 38 39 40 40 39 37 38 38 40 39 36 35 35 34 33 33 34 34 36 41 38 40 41 42 43 43 40 39 38
4 6 8 10 12 15 18 21 24 28 31 33 35 38 40 41 41 38 36 36 38 39 36 36 35 34 34 33 33 32 33 32 33 37 40 38 38 38 40 41 41 39 36
4 6 10 13 15 17 21 24 27 31 33 35 37 39 40 39 37 35 35 36 38 36 34 33 32 33 34 36 35 33 33 34 34 34 35 38 39 38 38 39 39 39 38
6 10 12 14 18 21 24 27 30 32 35 38 38 37 36 36 33 36 36 38 38 34 31 31 32 36 36 34 33 33 33 33 33 34 34 36 37 38 40 40 41 39 39
11 12 14 18 21 24 28 30 32 35 37 38 37 36 34 34 33 34 37 38 34 32 31 32 32 32 32 35 33 31 31 29 30 31 31 31 30 31 35 37 40 42 43
14 17 20 23 26 29 31 34 35 37 37 37 36 35 34 32 31 34 35 35 32 29 30 32 33 31 30 29 29 30 29 28 26 26 26 28 28 27 28 31 32 36 39
18 21 24 27 29 31 34 35 36 36 36 36 35 33 33 31 31 32 34 35 31 30 33 32 30 30 29 30 32 34 33 30 27 25 23 23 23 23 21 24 25 30 34
21 24 27 29 31 33 34 35 35 35 35 33 33 34 33 31 28 30 34 35 31 33 32 30 30 28 28 32 35 34 33 29 26 23 18 17 19 21 19 21 21 22 31
24 26 28 30 32 33 33 34 33 32 31 32 31 31 31 30 26 29 33 32 32 34 33 30 28 30 33 38 39 34 32 30 28 25 20 19 17 17 15 12 14 15 21
24 26 27 29 30 31 32 32 31 31 29 30 31 30 29 29 30 29 33 33 33 36 32 29 29 33 38 43 36 32 28 27 24 20 20 20 18 15 16 17 10 9 10
24 26 28 29 30 31 32 30 29 29 30 31 30 30 31 32 31 34 35 35 37 35 30 27 31 37 41 39 37 35 31 27 21 19 19 19 18 17 17 14 15 11 7
24 26 28 29 31 31 30 29 28 29 30 30 30 31 32 33 33 34 37 38 37 34 28 30 33 37 38 35 36 35 33 29 23 20 19 19 20 18 15 12 12 13 15
25 27 29 29 30 29 29 28 27 29 30 29 30 31 32 33 33 37 38 36 35 33 30 30 29 35 33 35 37 35 31 28 26 24 26 20 18 16 14 10 11 14 13
25 27 28 28 29 29 28 26 25 26 27 28 28 29 32 33 34 39 38 38 35 31 28 24 30 35 37 39 38 36 35 31 29 29 28 30 23 17 13 9 7 6 3
25 27 28 28 28 28 28 28 22 25 24 25 26 28 30 33 36 38 40 39 37 29 22 26 32 34 36 35 34 37 36 32 27 25 28 27 18 16 11 9 7 6 9
25 27 27 28 29 29 29 29 29 29 24 25 27 29 36 34 35 38 39 37 30 24 25 29 31 35 32 29 30 28 26 17 20 25 26 18 11 9 9 9 9 9 12
25 26 26 28 28 29 29 29 28 29 30 30 29 31 35 35 33 36 39 34 31 30 29 31 34 36 23 22 23 17 15 16 18 22 19 14 9 8 12 11 10 10 14
24 27 26 27 28 28 28 28 29 29 30 30 30 31 33 33 33 33 34 34 33 30 30 30 33 31 19 21 14 14 15 16 17 17 17 14 11 10 11 10 9 11 14
23 22 24 27 28 29 28 29 29 29 30 30 30 31 33 32 32 32 32 33 33 31 30 30 31 32 28 15 11 18 21 20 15 12 13 12 9 8 8 8 5 7 13
25 24 25 28 29 29 29 29 29 29 29 29 29 30 32 31 31 31 30 32 31 30 29 29 31 31 24 8 10 19 23 18 13 11 8 7 10 3 1 7 11 12 12
24 25 25 27 28 29 29 29 29 29 29 29 30 30 30 30 30 27 30 29 28 29 30 29 29 28 25 11 10 21 24 20 18 16 9 6 7 7 4 18 19 19 20
23 24 25 26 27 28 29 29 29 29 29 29 29 30 29 30 27 27 28 27 26 26 30 30 29 28 27 26 9 13 19 21 18 14 10 6 4 8 7 14 17 21 23
23 24 25 25 26 27 28 29 29 29 29 28 29 29 29 28 24 27 27 28 27 28 28 30 31 30 29 31 25 16 15 21 18 14 12 4 3 6 12 16 15 19 22
23 24 24 25 26 27 27 28 29 29 28 28 29 29 27 25 24 26 28 28 29 29 30 29 31 31 30 31 29 24 21 23 23 21 16 14 9 2 11 19 17 11 18
22 23 23 24 25 26 26 27 28 29 28 27 28 27 25 24 25 27 29 28 30 30 31 30 31 31 30 32 29 27 24 24 23 23 19 17 12 6 2 9 15 15 20
Wind_Direction
305 328 345 347 348 349 345 344 341 340 339 337 336 337 335 336 334 335 337 337 337 334 336 336 335 336 338 338 335 333 330 328 323 322 321 320 314 311 313 315 313 307 305
317 336 345 351 346 341 339 337 337 336 337 337 336 335 334 332 331 333 335 337 336 338 336 336 338 339 338 339 339 337 333 329 325 320 322 321 317 314 309 307 308 306 300
320 336 339 343 338 334 333 333 335 334 334 336 336 335 333 330 330 335 338 341 338 337 338 338 338 339 339 341 341 338 336 334 331 327 323 323 321 319 313 307 304 304 306
335 344 333 329 331 330 331 331 332 333 334 334 334 333 331 333 335 340 341 339 338 339 340 341 342 341 340 338 339 340 339 335 332 330 327 325 322 319 316 311 306 304 301
348 334 328 326 324 328 329 330 333 334 333 332 334 335 335 335 339 338 339 338 337 340 342 343 342 339 339 344 343 342 341 339 336 333 329 327 324 320 315 312 305 303 298
336 333 329 326 328 327 328 331 332 332 331 332 333 335 337 336 338 339 339 339 341 342 342 342 342 342 343 342 344 345 344 343 341 338 335 332 330 327 321 315 308 301 295
327 322 318 321 321 325 328 329 330 331 331 330 333 335 337 339 340 339 340 341 342 343 343 342 343 345 348 351 353 351 350 348 344 340 337 335 333 331 329 323 319 308 297
314 319 319 321 321 325 327 330 332 332 333 332 333 336 337 339 340 342 341 342 344 344 341 343 346 348 350 352 349 347 347 346 345 342 339 338 337 336 332 326 320 315 308
317 318 321 324 323 327 330 333 335 333 334 336 336 336 337 340 344 344 343 343 344 343 344 346 347 349 350 349 346 346 345 346 348 344 339 336 336 335 330 328 324 320 309
320 325 327 328 328 329 333 333 336 337 337 338 339 341 341 342 347 346 345 345 344 342 342 345 349 350 349 343 344 347 345 345 348 349 347 343 339 341 340 332 326 319 318
324 328 332 334 333 334 334 336 336 338 341 342 342 343 344 346 345 346 345 344 342 339 342 345 348 347 344 338 349 351 349 347 346 347 347 349 349 347 350 347 342 327 317
330 332 334 335 337 337 338 339 340 343 343 343 344 345 344 342 345 343 343 342 337 341 345 348 348 344 339 348 354 354 351 350 351 352 351 350 350 347 344 348 346 341 320
336 336 337 340 339 341 343 344 345 346 346 347 348 347 345 342 341 342 338 334 334 341 346 346 346 345 346 356 358 359 359 1 360 356 351 348 348 349 347 346 349 347 331
341 342 343 345 344 344 344 347 348 350 348 350 350 349 348 345 344 341 340 336 336 342 343 347 354 347 357 359 1 5 7 6 3 0 355 351 352 354 356 356 357 357 345
349 347 345 346 346 346 350 352 353 355 355 353 353 351 347 345 343 339 338 332 335 342 345 355 352 347 354 358 5 9 7 9 9 4 0 355 356 2 9 25 38 49 104
351 348 348 348 349 349 349 351 0 357 0 0 358 355 351 345 341 340 333 324 328 343 357 355 348 354 357 4 10 8 9 10 12 8 6 5 8 13 30 54 87 119 167
352 352 353 353 352 350 350 352 350 351 358 358 357 356 349 346 345 345 337 335 350 4 356 346 348 348 4 11 12 14 14 7 9 15 11 12 21 39 68 87 108 141 172
354 355 358 358 357 355 355 355 356 353 351 349 353 352 350 346 349 349 344 345 337 344 341 336 328 343 17 16 17 7 354 333 8 14 14 29 53 76 84 99 120 153 181
360 359 0 1 1 360 358 357 355 353 352 349 351 351 347 343 346 350 356 350 346 335 326 323 326 314 21 20 8 340 330 340 7 19 30 47 66 81 95 110 125 157 183
358 4 5 2 2 1 0 359 356 354 351 350 353 351 342 342 342 348 340 345 346 336 327 320 322 322 15 21 342 316 319 323 343 13 28 50 70 81 103 105 136 187 186
358 3 2 0 2 3 2 2 1 358 355 352 352 349 338 341 344 339 330 335 337 331 328 324 324 321 305 355 344 315 317 324 334 340 359 29 49 72 95 126 108 134 167
1 2 3 3 3 4 3 4 4 1 359 355 349 344 338 343 345 325 331 326 324 327 337 327 325 319 312 310 22 316 317 321 323 323 329 21 51 75 150 91 104 120 132
4 4 4 6 2 4 4 6 6 3 357 354 348 347 342 351 332 328 328 322 318 321 335 335 330 325 323 322 333 321 317 320 319 321 316 344 55 90 129 124 128 131 134
4 3 3 2 5 5 7 6 7 2 355 351 352 347 344 339 324 327 327 324 322 326 328 336 341 331 330 332 323 319 319 321 322 319 319 330 5 106 124 125 148 148 134
1 2 3 4 3 6 6 7 8 2 355 350 353 350 338 330 326 328 329 325 331 333 334 333 336 332 339 334 329 323 321 325 327 327 321 318 327 12 126 127 144 191 148
2 3 4 7 5 8 7 7 11 6 357 353 353 345 333 327 327 332 332 331 336 335 337 337 335 332 335 333 328 324 324 326 329 332 328 324 321 313 252 161 152 155 129